TimeEDT,TemperatureF,Dew PointF,Humidity,Sea Level PressureIn,VisibilityMPH,Wind Direction,Wind SpeedMPH,Gust SpeedMPH,PrecipitationIn,Events,Conditions,WindDirDegrees,DateUTC
12:14 AM,40.3,38.3,93,30.16,10.0,Calm,Calm,-,N/A,,Clear,0,2013-09-24 04:14:00
12:33 AM,39.2,36.9,91,30.16,10.0,Calm,Calm,-,N/A,,Clear,0,2013-09-24 04:33:00
12:53 AM,39.6,37.6,93,30.16,10.0,Calm,Calm,-,N/A,,Clear,0,2013-09-24 04:53:00
1:14 AM,38.5,37.4,96,30.15,10.0,Calm,Calm,-,N/A,,Clear,0,2013-09-24 05:14:00
1:34 AM,38.5,37.0,95,30.16,10.0,Calm,Calm,-,N/A,,Clear,0,2013-09-24 05:34:00
1:53 AM,38.5,36.1,91,30.15,10.0,Calm,Calm,-,N/A,,Clear,0,2013-09-24 05:53:00
2:14 AM,37.8,36.3,95,30.16,10.0,Calm,Calm,-,N/A,,Clear,0,2013-09-24 06:14:00
2:33 AM,37.9,36.5,95,30.16,10.0,Calm,Calm,-,N/A,,Clear,0,2013-09-24 06:33:00
2:53 AM,36.9,34.0,89,30.15,10.0,Calm,Calm,-,N/A,,Clear,0,2013-09-24 06:53:00
3:14 AM,37.2,34.5,90,30.15,10.0,Calm,Calm,-,N/A,,Clear,0,2013-09-24 07:14:00
3:33 AM,36.3,33.1,88,30.15,10.0,Calm,Calm,-,N/A,,Clear,0,2013-09-24 07:33:00
3:53 AM,36.9,34.7,92,30.15,10.0,Calm,Calm,-,N/A,,Clear,0,2013-09-24 07:53:00
4:14 AM,36.7,34.9,93,30.15,7.0,Calm,Calm,-,N/A,,Clear,0,2013-09-24 08:14:00
4:33 AM,36.5,34.9,94,30.15,10.0,Calm,Calm,-,N/A,,Clear,0,2013-09-24 08:33:00
4:53 AM,36.7,35.8,97,30.15,10.0,Calm,Calm,-,N/A,,Clear,0,2013-09-24 08:53:00
5:14 AM,35.8,33.8,92,30.15,10.0,Calm,Calm,-,N/A,,Clear,0,2013-09-24 09:14:00
5:33 AM,35.8,34.7,96,30.15,10.0,Calm,Calm,-,N/A,,Scattered Clouds,0,2013-09-24 09:33:00
5:53 AM,35.6,34.9,97,30.15,1.0,Calm,Calm,-,N/A,,Overcast,0,2013-09-24 09:53:00
6:14 AM,35.4,34.7,97,30.16,10.0,Calm,Calm,-,N/A,,Scattered Clouds,0,2013-09-24 10:14:00
6:33 AM,35.2,34.7,98,30.16,10.0,Calm,Calm,-,N/A,,Scattered Clouds,0,2013-09-24 10:33:00
6:54 AM,35.1,34.5,98,30.17,10.0,Calm,Calm,-,N/A,,Scattered Clouds,0,2013-09-24 10:54:00
7:14 AM,35.4,34.9,98,30.17,2.5,Calm,Calm,-,N/A,,Mostly Cloudy,0,2013-09-24 11:14:00
7:33 AM,35.1,34.5,98,30.18,0.5,Calm,Calm,-,N/A,Fog,Fog,0,2013-09-24 11:33:00
7:54 AM,36.1,35.6,98,30.18,10.0,Calm,Calm,-,N/A,,Clear,0,2013-09-24 11:54:00
8:14 AM,38.1,37.6,98,30.18,10.0,Calm,Calm,-,N/A,,Clear,0,2013-09-24 12:14:00
8:33 AM,41.4,40.8,98,30.18,10.0,Calm,Calm,-,N/A,,Mostly Cloudy,0,2013-09-24 12:33:00
8:54 AM,45.9,45.0,97,30.17,10.0,Calm,Calm,-,N/A,,Overcast,0,2013-09-24 12:54:00
9:14 AM,50.0,47.5,91,30.17,10.0,Calm,Calm,-,N/A,,Overcast,0,2013-09-24 13:14:00
9:33 AM,52.3,47.7,84,30.17,10.0,NW,3.5,-,N/A,,Overcast,310,2013-09-24 13:33:00
9:54 AM,53.1,47.5,81,30.17,10.0,NNW,4.6,-,N/A,,Mostly Cloudy,330,2013-09-24 13:54:00
10:14 AM,55.2,48.0,77,30.17,10.0,North,3.5,-,N/A,,Scattered Clouds,350,2013-09-24 14:14:00
10:33 AM,57.7,48.7,72,30.17,10.0,NNE,3.5,-,N/A,,Clear,30,2013-09-24 14:33:00
10:54 AM,58.5,48.6,70,30.16,10.0,NNE,4.6,-,N/A,,Clear,20,2013-09-24 14:54:00
11:14 AM,59.5,46.0,61,30.16,10.0,East,3.5,-,N/A,,Scattered Clouds,90,2013-09-24 15:14:00
11:33 AM,59.2,46.8,63,30.15,10.0,Calm,Calm,-,N/A,,Clear,0,2013-09-24 15:33:00
11:54 AM,60.3,46.2,60,30.15,10.0,East,3.5,-,N/A,,Clear,80,2013-09-24 15:54:00
12:13 PM,61.3,44.8,55,30.15,10.0,ENE,3.5,-,N/A,,Clear,70,2013-09-24 16:13:00
12:33 PM,61.5,44.8,54,30.14,10.0,East,5.8,-,N/A,,Clear,90,2013-09-24 16:33:00
12:54 PM,61.0,45.3,56,30.14,10.0,East,6.9,-,N/A,,Clear,80,2013-09-24 16:54:00
1:13 PM,61.9,46.4,57,30.13,10.0,East,8.1,-,N/A,,Clear,90,2013-09-24 17:13:00
1:33 PM,61.9,46.9,58,30.12,10.0,ENE,10.4,-,N/A,,Clear,60,2013-09-24 17:33:00
1:54 PM,62.2,46.9,57,30.12,10.0,ENE,11.5,-,N/A,,Clear,70,2013-09-24 17:54:00
2:13 PM,61.7,47.1,59,30.11,10.0,East,9.2,16.1,N/A,,Clear,90,2013-09-24 18:13:00
2:33 PM,62.2,46.8,57,30.10,10.0,ENE,8.1,-,N/A,,Clear,70,2013-09-24 18:33:00
2:54 PM,61.5,46.8,58,30.10,10.0,East,9.2,-,N/A,,Clear,100,2013-09-24 18:54:00
3:13 PM,62.4,47.7,58,30.09,10.0,ENE,6.9,-,N/A,,Clear,70,2013-09-24 19:13:00
3:33 PM,61.2,48.2,62,30.09,10.0,ESE,5.8,-,N/A,,Clear,110,2013-09-24 19:33:00
3:53 PM,61.9,48.4,61,30.08,10.0,East,5.8,-,N/A,,Clear,100,2013-09-24 19:53:00
4:13 PM,61.2,47.3,60,30.08,10.0,East,6.9,-,N/A,,Clear,100,2013-09-24 20:13:00
4:34 PM,60.8,46.8,60,30.07,10.0,East,6.9,-,N/A,,Clear,90,2013-09-24 20:34:00
4:53 PM,60.3,46.8,61,30.07,10.0,East,6.9,-,N/A,,Clear,100,2013-09-24 20:53:00
5:13 PM,60.3,46.2,60,30.07,10.0,ESE,5.8,-,N/A,,Clear,120,2013-09-24 21:13:00
5:34 PM,59.9,45.7,59,30.07,10.0,ESE,8.1,-,N/A,,Clear,120,2013-09-24 21:34:00
5:53 PM,59.4,46.2,62,30.07,10.0,ENE,8.1,-,N/A,,Clear,70,2013-09-24 21:53:00
6:13 PM,59.0,45.0,60,30.07,10.0,ESE,6.9,-,N/A,,Clear,110,2013-09-24 22:13:00
6:34 PM,58.5,45.7,62,30.06,10.0,East,5.8,-,N/A,,Clear,100,2013-09-24 22:34:00
6:53 PM,57.9,45.5,63,30.06,10.0,East,5.8,-,N/A,,Clear,90,2013-09-24 22:53:00
7:13 PM,57.2,45.5,65,30.06,10.0,East,4.6,-,N/A,,Clear,90,2013-09-24 23:13:00
7:34 PM,55.9,46.4,70,30.06,10.0,East,4.6,-,N/A,,Clear,90,2013-09-24 23:34:00
7:53 PM,54.1,46.0,74,30.05,10.0,Calm,Calm,-,N/A,,Clear,0,2013-09-24 23:53:00
8:13 PM,53.8,46.4,76,30.05,10.0,Calm,Calm,-,N/A,,Clear,0,2013-09-25 00:13:00
8:33 PM,46.8,43.0,87,30.05,10.0,Calm,Calm,-,N/A,,Clear,0,2013-09-25 00:33:00
8:53 PM,45.1,43.0,92,30.05,10.0,Calm,Calm,-,N/A,,Clear,0,2013-09-25 00:53:00
9:14 PM,44.4,42.4,93,30.05,10.0,Calm,Calm,-,N/A,,Clear,0,2013-09-25 01:14:00
9:33 PM,43.9,41.4,91,30.04,10.0,Calm,Calm,-,N/A,,Clear,0,2013-09-25 01:33:00
9:53 PM,42.8,40.5,91,30.04,10.0,Calm,Calm,-,N/A,,Clear,0,2013-09-25 01:53:00
10:14 PM,42.8,41.4,95,30.04,10.0,Calm,Calm,-,N/A,,Clear,0,2013-09-25 02:14:00
10:33 PM,41.9,39.4,91,30.03,10.0,Calm,Calm,-,N/A,,Clear,0,2013-09-25 02:33:00
10:53 PM,41.2,38.1,89,30.03,10.0,Calm,Calm,-,N/A,,Clear,0,2013-09-25 02:53:00
11:14 PM,40.3,37.0,88,30.03,10.0,Calm,Calm,-,N/A,,Clear,0,2013-09-25 03:14:00
11:33 PM,40.8,38.5,91,30.03,10.0,Calm,Calm,-,N/A,,Clear,0,2013-09-25 03:33:00
11:53 PM,39.7,35.6,85,30.03,10.0,Calm,Calm,-,N/A,,Clear,0,2013-09-25 03:53:00